When you browse on this site, cookies collect data to enhance your experience and personalize the content and advertising you see.
Visit our Privacy Policy to learn more. By continuing to use the site, you agree to this use of cookies and data.
  • In France
  • List of Countries
  • For 7 days
  • Water Temperature
  • Satellite Maps
  • Weather Map
  • Weather Widgets
  • user-avatar
    Login

    Hourly Weather Lankaran

    Today, 17 June, Monday

    Time Temperature Precipitation Wind Pressure Humidity
    00:00 +18°C° 0 mm 1 mps 631 mmHg 56%
    01:00 +18°C° 0 mm 1 mps 631 mmHg 56%
    02:00 +16°C° 0 mm 1 mps 630 mmHg 56%
    03:00 +16°C° 0 mm 1 mps 630 mmHg 58%
    04:00 +18°C° 0 mm 1 mps 631 mmHg 57%
    05:00 +18°C° 0 mm 0 mps 631 mmHg 56%
    06:00 +19°C° 0 mm 0 mps 632 mmHg 56%
    07:00 +20°C° 0 mm 0 mps 632 mmHg 52%
    08:00 +23°C° 0 mm 1 mps 633 mmHg 49%
    09:00 +25°C° 0 mm 1 mps 633 mmHg 45%
    10:00 +25°C° 0 mm 2 mps 633 mmHg 46%
    11:00 +26°C° 0 mm 2 mps 634 mmHg 46%
    12:00 +27°C° 0 mm 3 mps 634 mmHg 46%
    13:00 +26°C° 0.1 mm 3 mps 633 mmHg 46%
    14:00 +26°C° 0.1 mm 3 mps 633 mmHg 47%
    15:00 +26°C° 0.1 mm 3 mps 632 mmHg 48%
    16:00 +25°C° 0 mm 3 mps 632 mmHg 53%
    17:00 +23°C° 0 mm 2 mps 631 mmHg 58%
    18:00 +21°C° 0 mm 2 mps 631 mmHg 64%
    19:00 +20°C° 0 mm 2 mps 631 mmHg 67%
    20:00 +19°C° 0 mm 1 mps 631 mmHg 70%
    21:00 +18°C° 0 mm 1 mps 631 mmHg 74%
    22:00 +18°C° 0.1 mm 1 mps 631 mmHg 74%
    23:00 +16°C° 0.1 mm 1 mps 631 mmHg 74%

    Tomorrow, 18 June, Tuesday

    Time Temperature Precipitation Wind Pressure Humidity
    00:00 +16°C° 0.1 mm 1 mps 631 mmHg 74%
    01:00 +16°C° 0 mm 1 mps 631 mmHg 74%
    02:00 +15°C° 0 mm 1 mps 631 mmHg 73%
    03:00 +14°C° 0 mm 0 mps 631 mmHg 73%
    04:00 +16°C° 0 mm 1 mps 631 mmHg 70%
    05:00 +18°C° 0 mm 1 mps 632 mmHg 67%
    06:00 +19°C° 0 mm 1 mps 632 mmHg 65%
    07:00 +19°C° 0 mm 2 mps 633 mmHg 58%
    08:00 +21°C° 0 mm 2 mps 633 mmHg 52%
    09:00 +22°C° 0 mm 3 mps 633 mmHg 46%
    10:00 +22°C° 0 mm 3 mps 633 mmHg 44%
    11:00 +24°C° 0 mm 3 mps 633 mmHg 41%
    12:00 +23°C° 0 mm 4 mps 633 mmHg 39%
    13:00 +23°C° 0 mm 4 mps 633 mmHg 40%
    14:00 +23°C° 0 mm 4 mps 633 mmHg 40%
    15:00 +22°C° 0 mm 4 mps 632 mmHg 40%
    16:00 +21°C° 0 mm 3 mps 632 mmHg 44%
    17:00 +20°C° 0 mm 3 mps 632 mmHg 48%
    18:00 +19°C° 0 mm 2 mps 631 mmHg 51%
    19:00 +17°C° 0 mm 2 mps 631 mmHg 53%
    20:00 +16°C° 0 mm 2 mps 631 mmHg 55%
    21:00 +15°C° 0 mm 1 mps 631 mmHg 56%
    22:00 +15°C° 0 mm 1 mps 631 mmHg 55%
    23:00 +14°C° 0 mm 1 mps 631 mmHg 55%

    Day after tomorrow, 19 June, Wednesday

    Time Temperature Precipitation Wind Pressure Humidity
    00:00 +14°C° 0 mm 1 mps 631 mmHg 54%
    01:00 +14°C° 0 mm 1 mps 631 mmHg 54%
    02:00 +14°C° 0 mm 1 mps 631 mmHg 53%
    03:00 +13°C° 0 mm 1 mps 630 mmHg 53%
    04:00 +14°C° 0 mm 1 mps 631 mmHg 52%
    05:00 +15°C° 0 mm 1 mps 631 mmHg 51%
    06:00 +16°C° 0 mm 1 mps 632 mmHg 50%
    07:00 +19°C° 0 mm 1 mps 632 mmHg 47%
    08:00 +19°C° 0 mm 2 mps 633 mmHg 44%
    09:00 +21°C° 0 mm 2 mps 634 mmHg 40%
    10:00 +22°C° 0 mm 3 mps 634 mmHg 40%
    11:00 +22°C° 0 mm 3 mps 634 mmHg 39%
    12:00 +23°C° 0 mm 4 mps 634 mmHg 38%
    13:00 +23°C° 0 mm 4 mps 633 mmHg 38%
    14:00 +23°C° 0 mm 4 mps 633 mmHg 37%
    15:00 +23°C° 0 mm 4 mps 633 mmHg 37%
    16:00 +22°C° 0 mm 3 mps 632 mmHg 41%
    17:00 +21°C° 0 mm 3 mps 632 mmHg 46%
    18:00 +20°C° 0 mm 2 mps 632 mmHg 50%
    19:00 +18°C° 0 mm 2 mps 631 mmHg 51%
    20:00 +18°C° 0 mm 1 mps 631 mmHg 51%
    21:00 +15°C° 0 mm 1 mps 631 mmHg 51%
    22:00 +15°C° 0 mm 1 mps 631 mmHg 51%
    23:00 +15°C° 0 mm 1 mps 631 mmHg 50%

    20 June, Thursday

    Time Temperature Precipitation Wind Pressure Humidity
    00:00 +14°C° 0 mm 1 mps 631 mmHg 49%
    01:00 +14°C° 0 mm 1 mps 631 mmHg 50%
    02:00 +14°C° 0 mm 1 mps 630 mmHg 50%
    03:00 +14°C° 0 mm 1 mps 630 mmHg 51%
    04:00 +15°C° 0 mm 1 mps 631 mmHg 51%
    05:00 +16°C° 0 mm 1 mps 631 mmHg 50%
    06:00 +18°C° 0 mm 1 mps 632 mmHg 50%
    07:00 +20°C° 0 mm 1 mps 632 mmHg 47%
    08:00 +20°C° 0 mm 2 mps 633 mmHg 44%
    09:00 +22°C° 0 mm 3 mps 633 mmHg 41%
    10:00 +22°C° 0 mm 3 mps 633 mmHg 41%
    11:00 +24°C° 0 mm 3 mps 633 mmHg 40%
    12:00 +25°C° 0 mm 3 mps 633 mmHg 40%
    13:00 +25°C° 0 mm 4 mps 633 mmHg 40%
    14:00 +25°C° 0 mm 4 mps 632 mmHg 41%
    15:00 +25°C° 0 mm 4 mps 632 mmHg 41%
    16:00 +22°C° 0 mm 3 mps 631 mmHg 44%
    17:00 +21°C° 0 mm 3 mps 631 mmHg 47%
    18:00 +20°C° 0 mm 2 mps 630 mmHg 50%
    19:00 +19°C° 0 mm 2 mps 630 mmHg 50%
    20:00 +18°C° 0 mm 1 mps 630 mmHg 50%
    21:00 +16°C° 0 mm 1 mps 630 mmHg 50%
    22:00 +16°C° 0 mm 1 mps 630 mmHg 49%
    23:00 +16°C° 0 mm 1 mps 630 mmHg 48%

    21 June, Friday

    Time Temperature Precipitation Wind Pressure Humidity
    00:00 +16°C° 0 mm 1 mps 630 mmHg 48%
    01:00 +16°C° 0 mm 1 mps 630 mmHg 50%
    02:00 +15°C° 0 mm 1 mps 630 mmHg 51%
    03:00 +15°C° 0 mm 1 mps 630 mmHg 53%
    04:00 +15°C° 0 mm 1 mps 630 mmHg 55%
    05:00 +16°C° 0 mm 1 mps 630 mmHg 57%
    06:00 +16°C° 0 mm 1 mps 631 mmHg 58%
    07:00 +18°C° 0 mm 2 mps 631 mmHg 55%
    08:00 +19°C° 0 mm 3 mps 632 mmHg 52%
    09:00 +21°C° 0 mm 3 mps 633 mmHg 49%
    10:00 +21°C° 0 mm 4 mps 633 mmHg 49%
    11:00 +22°C° 0 mm 4 mps 633 mmHg 49%
    12:00 +23°C° 0 mm 5 mps 633 mmHg 48%
    13:00 +22°C° 0 mm 5 mps 632 mmHg 49%
    14:00 +22°C° 0 mm 5 mps 632 mmHg 50%
    15:00 +22°C° 0 mm 5 mps 632 mmHg 51%
    16:00 +21°C° 0.1 mm 4 mps 632 mmHg 56%
    17:00 +20°C° 0.1 mm 4 mps 631 mmHg 60%
    18:00 +18°C° 0.1 mm 3 mps 631 mmHg 64%
    19:00 +17°C° 0 mm 3 mps 631 mmHg 65%
    20:00 +16°C° 0 mm 2 mps 631 mmHg 66%
    21:00 +15°C° 0 mm 2 mps 632 mmHg 67%
    22:00 +15°C° 0 mm 2 mps 632 mmHg 66%
    23:00 +14°C° 0 mm 2 mps 631 mmHg 64%

    22 June, Saturday

    Time Temperature Precipitation Wind Pressure Humidity
    00:00 +14°C° 0 mm 2 mps 631 mmHg 63%
    01:00 +14°C° 0 mm 1 mps 631 mmHg 63%
    02:00 +14°C° 0 mm 1 mps 631 mmHg 63%
    03:00 +14°C° 0 mm 1 mps 631 mmHg 63%
    04:00 +15°C° 0 mm 1 mps 632 mmHg 60%
    05:00 +16°C° 0 mm 1 mps 632 mmHg 58%
    06:00 +18°C° 0 mm 1 mps 633 mmHg 55%
    07:00 +18°C° 0 mm 2 mps 634 mmHg 49%
    08:00 +20°C° 0 mm 2 mps 634 mmHg 44%
    09:00 +22°C° 0 mm 3 mps 635 mmHg 38%
    10:00 +24°C° 0 mm 3 mps 635 mmHg 37%
    11:00 +23°C° 0 mm 4 mps 635 mmHg 37%
    12:00 +25°C° 0 mm 4 mps 635 mmHg 36%
    13:00 +25°C° 0 mm 4 mps 635 mmHg 36%
    14:00 +25°C° 0 mm 4 mps 634 mmHg 37%
    15:00 +25°C° 0 mm 4 mps 634 mmHg 38%
    16:00 +23°C° 0 mm 4 mps 634 mmHg 43%
    17:00 +22°C° 0 mm 3 mps 634 mmHg 48%
    18:00 +21°C° 0 mm 3 mps 633 mmHg 53%
    19:00 +20°C° 0 mm 2 mps 633 mmHg 53%
    20:00 +18°C° 0 mm 2 mps 633 mmHg 53%
    21:00 +18°C° 0 mm 1 mps 633 mmHg 53%
    22:00 +18°C° 0 mm 1 mps 633 mmHg 51%
    23:00 +16°C° 0 mm 1 mps 633 mmHg 49%
    Show more